Date String (YYYY-MM-DD hh:mm:ss) UTC,Instrument flags,Ambient pressure (hPa),Sample flow (lpm),Bypass flow (lpm),Sample temperature (°C),Ambient temperature (°C),ASC tube jacket temperature (°C),LED temperature (°C),Box temperature (°C),Sample RH (%),Span deviation,Mass concentration (μg/m³),Mass concentration (μg/m³),Mass concentration (μg/m³)
DateTimeUTC,F1_M11,P_M11,Q1_M11,Q2_M11,T1_M11,T2_M11,T3_M11,T4_M11,T5_M11,U1_M11,ZSPAN_M11,X0_M11,X2_M11,X1_M11
2022-12-24 14:00:00,,0829.0,5.00,0.00,21.7,20.9,00.0,30.6,23.5,13.4,0000.0,0000.38,0000.19,0000.10
2022-12-24 14:01:00,,0828.9,5.03,0.00,21.9,22.0,00.0,30.6,23.8,13.3,0000.0,0000.38,0000.18,0000.10
2022-12-24 14:02:00,,0828.7,4.96,0.00,22.0,22.3,00.0,30.6,23.9,13.3,0000.0,0000.37,0000.18,0000.10
2022-12-24 14:03:00,,0829.1,5.02,0.00,22.0,21.9,00.0,30.7,23.9,13.2,0000.0,0000.37,0000.18,0000.10
2022-12-24 14:04:00,,0828.9,5.03,0.00,22.0,21.5,00.0,30.7,23.8,13.2,0000.0,0000.35,0000.17,0000.11
2022-12-24 14:05:00,,0828.8,4.98,0.00,22.0,21.2,00.0,30.7,23.7,13.3,0000.0,0000.34,0000.16,0000.11
2022-12-24 14:06:00,,0829.0,4.97,0.00,22.0,20.9,00.0,30.7,23.7,13.1,0000.0,0000.34,0000.16,0000.11
2022-12-24 14:07:00,,0829.2,5.02,0.00,22.0,20.7,00.0,30.7,23.6,13.2,0000.0,0000.39,0000.17,0000.11
2022-12-24 14:08:00,,0829.1,5.02,0.00,21.9,20.6,00.0,30.7,23.6,13.1,0000.0,0000.36,0000.17,0000.11
2022-12-24 14:09:00,,0829.2,5.01,0.00,21.9,20.5,00.0,30.7,23.6,13.1,0000.0,0000.31,0000.16,0000.11
2022-12-24 14:10:00,,0829.2,4.97,0.00,21.9,20.4,00.0,30.7,23.6,13.0,0000.0,0000.33,0000.17,0000.11
2022-12-24 14:11:00,,0828.9,4.99,0.00,21.9,20.3,00.0,30.7,23.5,13.0,0000.0,0000.32,0000.17,0000.11
2022-12-24 14:12:00,,0828.9,5.03,0.00,21.9,20.3,00.0,30.7,23.5,13.0,0000.0,0000.34,0000.18,0000.11
2022-12-24 14:13:00,,0829.0,5.01,0.00,21.8,20.3,00.0,30.7,23.5,13.1,0000.0,0000.41,0000.19,0000.11
2022-12-24 14:14:00,,0829.0,4.99,0.00,21.9,20.6,00.0,30.7,23.5,13.1,0000.0,0000.45,0000.19,0000.11
2022-12-24 14:15:00,,0829.0,4.97,0.00,21.9,21.7,00.0,30.7,23.8,13.1,0000.0,0000.55,0000.19,0000.10
2022-12-24 14:16:00,,0828.7,5.03,0.00,22.1,22.4,00.0,30.7,24.0,13.0,0000.0,0000.66,0000.20,0000.10
2022-12-24 14:17:00,,0828.6,5.00,0.00,22.1,22.0,00.0,30.7,24.0,13.0,0000.0,0001.78,0000.21,0000.10
2022-12-24 14:18:00,,0828.6,4.98,0.00,22.1,21.4,00.0,30.8,23.8,13.0,0000.0,0001.75,0000.20,0000.10
2022-12-24 14:19:00,,0828.5,5.04,0.00,22.0,20.9,00.0,30.8,23.7,13.1,0000.0,0001.70,0000.19,0000.11
2022-12-24 14:20:00,,0828.5,5.02,0.00,22.0,20.5,00.0,30.8,23.5,13.1,0000.0,0001.74,0000.20,0000.11
2022-12-24 14:21:00,,0828.5,4.96,0.00,21.9,20.1,00.0,30.8,23.4,13.2,0000.0,0001.70,0000.20,0000.11
2022-12-24 14:22:00,,0828.6,4.97,0.00,21.8,19.8,00.0,30.8,23.2,13.2,0000.0,0001.69,0000.19,0000.11
2022-12-24 14:23:00,,0828.8,5.00,0.00,21.7,19.6,00.0,30.7,23.1,13.3,0000.0,0001.69,0000.19,0000.11
2022-12-24 14:24:00,,0828.9,5.02,0.00,21.7,19.5,00.0,30.7,23.1,13.4,0000.0,0001.62,0000.19,0000.11
2022-12-24 14:25:00,,0829.1,5.01,0.00,21.6,19.6,00.0,30.7,23.1,13.4,0000.0,0001.56,0000.18,0000.11
2022-12-24 14:26:00,,0829.0,4.99,0.00,21.6,19.7,00.0,30.6,23.1,13.4,0000.0,0001.44,0000.17,0000.11
2022-12-24 14:27:00,,0829.0,4.97,0.00,21.6,20.4,00.0,30.6,23.2,13.4,0000.0,0001.37,0000.16,0000.11
2022-12-24 14:28:00,,0828.9,5.02,0.00,21.7,21.7,00.0,30.5,23.6,13.2,0000.0,0000.28,0000.18,0000.11
2022-12-24 14:29:00,,0828.7,5.03,0.00,21.9,22.3,00.0,30.6,23.8,13.0,0000.0,0000.28,0000.18,0000.12
2022-12-24 14:30:00,,0829.0,4.96,0.00,21.9,21.9,00.0,30.6,23.8,12.9,0000.0,0000.29,0000.18,0000.12
2022-12-24 14:31:00,,0829.1,5.02,0.00,21.9,21.5,00.0,30.7,23.7,12.8,0000.0,0000.30,0000.18,0000.11
2022-12-24 14:32:00,,0829.0,5.00,0.00,21.9,21.1,00.0,30.7,23.6,12.8,0000.0,0001.38,0000.18,0000.11
2022-12-24 14:33:00,,0828.9,5.00,0.00,21.9,20.8,00.0,30.7,23.6,12.7,0000.0,0001.50,0000.18,0000.11
2022-12-24 14:34:00,,0828.8,4.96,0.00,21.9,20.6,00.0,30.7,23.5,12.8,0000.0,0001.51,0000.18,0000.10
2022-12-24 14:35:00,,0828.9,4.99,0.00,21.8,20.5,00.0,30.7,23.5,12.8,0000.0,0001.91,0000.19,0000.10
2022-12-24 14:36:00,,0829.0,5.03,0.00,21.8,20.4,00.0,30.7,23.4,12.9,0000.0,0001.91,0000.19,0000.10
2022-12-24 14:37:00,,0829.2,5.02,0.00,21.8,20.3,00.0,30.7,23.4,13.1,0000.0,0001.91,0000.18,0000.10
2022-12-24 14:38:00,,0828.8,4.99,0.00,21.8,20.2,00.0,30.7,23.4,12.9,0000.0,0002.01,0000.18,0000.10
2022-12-24 14:39:00,,0828.7,4.98,0.00,21.7,20.1,00.0,30.7,23.3,13.0,0000.0,0002.58,0000.16,0000.10
2022-12-24 14:40:00,,0828.7,4.99,0.00,21.7,20.0,00.0,30.6,23.3,13.0,0000.0,0002.67,0000.16,0000.10
2022-12-24 14:41:00,,0828.7,5.02,0.00,21.7,20.0,00.0,30.6,23.2,13.0,0000.0,0002.80,0000.16,0000.09
2022-12-24 14:42:00,,0828.8,5.02,0.00,21.7,21.2,00.0,30.6,23.5,12.9,0000.0,0002.75,0000.14,0000.09
2022-12-24 14:43:00,,0829.3,4.95,0.00,21.9,22.3,00.0,30.6,23.8,12.9,0000.0,0001.73,0000.13,0000.09
2022-12-24 14:44:00,,0828.9,5.03,0.00,22.0,22.1,00.0,30.6,23.8,12.9,0000.0,0001.52,0000.13,0000.09
2022-12-24 14:45:00,,0829.0,5.01,0.00,22.0,21.6,00.0,30.7,23.8,12.8,0000.0,0001.52,0000.12,0000.09
2022-12-24 14:46:00,,0829.3,4.97,0.00,21.9,21.2,00.0,30.7,23.7,12.8,0000.0,0001.18,0000.12,0000.09
2022-12-24 14:47:00,,0829.4,5.01,0.00,21.9,21.0,00.0,30.7,23.6,12.8,0000.0,0001.13,0000.12,0000.09
2022-12-24 14:48:00,,0829.2,5.02,0.00,21.9,20.8,00.0,30.7,23.6,12.8,0000.0,0001.13,0000.11,0000.09
2022-12-24 14:49:00,,0828.8,5.02,0.00,21.9,20.7,00.0,30.7,23.6,12.9,0000.0,0001.06,0000.12,0000.09
2022-12-24 14:50:00,,0828.8,4.99,0.00,21.9,20.6,00.0,30.7,23.6,12.9,0000.0,0000.39,0000.11,0000.08
2022-12-24 14:51:00,,0828.8,4.97,0.00,21.9,20.6,00.0,30.7,23.5,12.9,0000.0,0000.33,0000.11,0000.08
2022-12-24 14:52:00,,0828.9,5.00,0.00,21.9,20.6,00.0,30.7,23.5,13.0,0000.0,0000.17,0000.11,0000.09
2022-12-24 14:53:00,,0828.9,5.01,0.00,21.9,20.6,00.0,30.7,23.5,13.0,0000.0,0000.19,0000.12,0000.09
2022-12-24 14:54:00,,0828.8,5.03,0.00,21.9,20.6,00.0,30.7,23.5,13.1,0000.0,0000.19,0000.12,0000.08
2022-12-24 14:55:00,,0828.8,4.97,0.00,21.9,20.6,00.0,30.7,23.4,12.9,0000.0,0000.18,0000.12,0000.08
2022-12-24 14:56:00,,0828.9,4.97,0.00,21.8,20.5,00.0,30.7,23.4,12.8,0000.0,0000.15,0000.11,0000.08
2022-12-24 14:57:00,,0829.0,5.02,0.00,21.8,20.4,00.0,30.7,23.4,12.8,0000.0,0000.13,0000.10,0000.08
2022-12-24 14:58:00,,0829.1,5.03,0.00,21.8,21.1,00.0,30.6,23.5,12.7,0000.0,0000.12,0000.10,0000.08
2022-12-24 14:59:00,,0829.1,4.95,0.00,22.0,22.3,00.0,30.6,23.9,12.8,0000.0,0000.12,0000.10,0000.08
